RH
34 33 34 34 33 33 34 36 37 37 39 40 37 36 37 36 35 32 25 26 32 33 28 24 22 17 16 20 23 25 27 27 27 25 20 16 14 12 11 11 12 15 17 16 14 13 12 11 11 11 11 10 9 9 9 10 12 12 13 14 13 13 11 10 9 9 9 9 9 8 9 9 9 11 11 13 18 22 26 27 30 32 30 30 31 28 28 33
37 37 38 37 36 35 34 34 35 36 37 38 35 34 36 35 36 35 30 29 33 35 33 33 30 21 16 17 18 22 26 27 27 25 23 22 18 13 11 10 11 13 16 16 16 15 14 13 12 11 11 10 10 10 10 11 11 12 14 13 12 11 9 9 8 9 9 8 8 8 9 8 8 10 11 12 20 26 27 30 32 32 33 32 31 30 30 34
36 36 38 39 40 39 38 37 36 35 34 33 30 30 31 31 33 33 33 34 34 34 34 36 36 26 18 16 16 20 25 27 26 25 27 28 23 17 13 11 11 13 15 16 16 15 14 13 13 13 12 11 10 11 11 11 12 12 13 13 11 9 9 8 8 8 8 8 9 9 9 9 9 9 10 11 17 25 28 33 35 36 38 36 33 34 35 37
37 35 36 39 40 40 41 40 39 39 37 36 32 29 28 27 28 29 30 33 34 35 36 37 37 30 21 16 16 19 25 26 24 25 28 28 26 22 17 12 12 13 14 15 17 15 14 13 13 14 13 13 11 11 13 12 12 12 12 12 10 9 8 8 7 7 8 8 8 9 9 10 10 9 10 11 14 20 24 28 32 37 40 39 37 38 38 39
37 36 35 37 39 39 39 38 37 38 40 41 39 36 32 30 28 26 27 27 31 37 38 37 38 33 24 18 16 20 24 22 22 26 27 26 26 24 20 15 13 15 15 15 16 15 15 14 13 14 13 14 13 12 12 11 12 12 12 11 10 9 9 8 7 8 7 8 8 8 9 10 10 10 11 12 12 15 17 22 28 32 35 35 35 38 40 40
35 35 35 35 35 36 35 34 35 35 36 38 40 41 39 36 32 30 30 28 30 36 40 39 39 37 30 22 16 20 25 22 24 27 25 25 26 26 23 18 16 17 17 17 16 16 16 15 13 13 13 13 14 13 13 11 11 12 12 11 11 10 9 8 8 8 8 8 8 8 9 10 12 12 12 12 12 13 14 17 23 27 28 28 29 34 41 43
33 33 33 32 33 33 32 32 32 32 33 34 35 39 41 40 38 36 33 30 29 32 38 39 39 40 35 29 19 22 29 24 25 28 25 26 26 27 27 20 17 18 18 18 17 16 16 15 13 12 13 13 14 13 13 13 12 12 12 11 11 10 10 9 9 9 8 8 8 8 9 11 12 14 13 13 12 13 14 15 20 25 27 29 31 36 43 45
30 30 30 31 31 31 31 31 31 32 32 32 32 33 37 39 40 39 36 33 28 28 34 38 39 40 39 35 27 31 33 23 21 27 28 28 27 29 29 24 20 19 20 20 18 17 17 16 13 12 13 13 13 13 13 13 13 13 12 11 10 10 10 10 10 9 9 8 8 8 10 11 12 13 13 13 13 14 14 16 22 28 31 33 35 38 41 41
29 29 29 30 30 30 31 32 32 33 33 33 31 30 31 33 36 38 39 37 31 27 29 36 38 39 41 38 35 39 31 18 18 24 29 30 29 29 31 29 26 24 24 21 20 19 18 17 14 12 13 13 12 13 12 13 14 13 12 11 11 10 10 10 10 9 10 9 9 9 10 10 11 12 13 13 15 16 16 20 26 32 35 36 36 37 37 37
29 29 30 30 30 31 31 32 32 33 34 33 33 31 29 28 31 35 38 39 37 30 27 35 38 38 42 39 39 39 25 16 18 20 26 31 30 30 31 33 31 29 27 24 23 22 19 17 14 13 12 13 13 13 13 13 13 13 12 12 11 11 10 10 10 10 10 10 11 11 10 10 10 12 12 12 16 19 22 29 33 35 36 36 37 36 35 35
29 29 30 30 30 30 30 31 31 32 33 33 33 33 31 29 28 31 36 39 40 35 29 33 38 38 41 41 42 37 22 19 21 20 25 29 30 31 31 34 32 31 31 28 26 23 20 17 14 13 12 12 13 13 13 13 13 12 13 13 12 12 11 11 10 10 11 11 11 12 12 11 11 13 11 11 18 23 27 34 35 35 36 37 36 35 34 34
28 29 29 29 30 31 32 32 32 31 30 30 30 30 30 31 30 31 36 39 40 39 32 31 37 39 38 42 40 30 23 23 22 21 24 27 32 33 32 34 31 30 31 30 27 24 22 19 16 14 13 13 13 13 13 13 13 12 13 14 13 13 12 12 11 11 12 12 11 12 13 12 12 12 9 12 23 28 30 35 36 36 36 36 35 34 34 34
27 29 30 31 33 32 32 32 31 29 28 27 24 22 24 27 29 32 37 42 41 40 36 29 33 37 37 40 32 22 23 24 22 21 23 27 31 34 34 34 32 29 30 31 28 26 23 20 17 14 13 14 14 14 14 13 13 12 13 14 14 15 13 12 11 11 12 12 12 13 14 13 12 12 10 16 27 31 34 35 35 36 36 35 35 35 36 34
28 30 31 33 34 33 32 31 30 29 29 26 21 19 20 20 25 29 35 42 42 41 39 32 33 37 39 36 24 20 24 23 22 22 25 28 29 33 34 34 33 30 29 31 29 27 25 21 18 16 14 15 15 15 15 15 14 14 15 15 15 16 15 12 11 12 12 12 12 13 14 13 13 13 12 18 27 31 35 36 35 36 35 35 35 35 36 33
29 30 32 33 34 33 31 32 32 37 40 33 26 25 22 20 23 28 33 36 37 40 40 35 34 36 39 33 22 22 26 24 23 23 28 32 30 32 34 35 33 30 29 31 30 27 25 22 19 18 16 15 16 17 18 17 16 16 16 17 16 17 16 13 11 12 12 12 12 13 14 13 13 14 13 17 25 31 34 36 36 36 35 35 35 34 34 32
33 32 33 33 34 35 34 34 35 47 53 42 36 36 30 26 25 27 30 31 33 38 41 37 34 35 39 33 24 24 25 24 24 25 29 34 35 34 33 34 33 30 30 31 30 28 25 23 21 19 18 17 17 18 19 19 19 17 17 19 17 16 16 14 12 13 12 12 12 12 14 14 13 14 15 17 25 33 35 36 37 36 35 35 34 33 32 32
39 37 37 35 35 38 41 39 40 51 57 48 44 44 37 32 28 27 29 30 31 35 38 35 34 38 36 29 25 26 25 25 26 27 28 30 37 39 35 34 33 30 31 31 30 29 26 23 21 20 19 19 19 19 21 21 21 19 18 19 18 16 16 14 13 13 12 13 13 12 13 13 13 18 21 20 26 33 35 36 36 36 35 34 33 33 32 31
42 41 40 38 39 42 45 45 45 52 54 47 46 46 41 37 33 29 28 29 32 35 36 34 37 38 29 22 26 27 25 26 26 26 26 28 35 41 40 36 34 32 31 31 30 28 27 24 22 22 21 21 21 20 21 21 20 20 19 18 17 16 15 14 13 12 13 13 13 12 13 11 14 25 29 26 29 34 35 35 35 35 34 34 34 32 31 31
44 41 38 39 42 45 47 46 47 49 45 41 43 42 39 38 35 34 33 33 35 37 35 35 37 33 23 19 25 28 28 28 26 24 24 28 33 39 43 41 37 35 33 32 29 27 27 26 24 23 21 22 21 19 20 19 18 19 19 18 17 16 15 14 13 13 13 13 13 13 14 12 16 28 32 30 33 34 35 35 34 35 35 35 35 33 32 32
46 41 37 38 41 45 46 44 44 44 40 42 47 44 42 41 39 40 43 43 42 39 34 34 35 31 25 20 22 27 29 30 30 27 24 27 32 37 44 47 44 39 35 32 30 28 28 29 27 23 20 20 21 20 19 18 17 17 18 18 17 16 15 14 13 14 13 13 14 14 15 14 18 30 33 32 34 35 35 34 34 35 35 36 37 36 33 32
48 42 39 41 42 43 42 42 44 44 47 53 51 49 50 51 50 50 49 47 45 44 40 35 35 34 30 23 22 28 29 30 30 28 26 25 30 37 43 50 50 44 37 33 33 30 30 32 27 22 21 20 21 21 19 18 17 17 17 17 17 16 15 14 13 14 13 14 14 15 16 14 19 32 36 34 35 36 36 36 36 37 38 38 38 38 35 33
48 42 41 43 42 43 43 45 47 48 56 56 45 46 54 58 61 60 56 50 47 51 49 42 39 37 31 22 22 29 31 32 29 26 28 27 28 35 43 49 52 46 39 38 38 35 33 33 28 24 24 21 21 21 20 19 18 18 18 17 17 17 15 14 13 14 14 14 15 15 15 16 24 35 38 36 35 36 38 38 38 39 41 42 40 38 36 36
50 44 42 43 43 45 49 49 49 52 60 55 42 47 58 61 64 65 65 60 53 54 52 48 44 38 31 22 21 27 31 33 30 26 29 30 28 35 43 48 52 48 44 42 40 38 36 34 30 27 25 22 20 20 20 20 19 19 19 18 18 17 16 15 15 14 13 14 15 16 16 21 32 38 37 36 34 36 40 39 39 39 42 45 43 40 38 39
52 46 43 44 45 49 53 52 51 54 63 60 49 52 58 60 64 69 72 69 60 57 53 49 47 43 35 26 24 26 28 30 30 26 29 32 30 36 44 48 52 51 45 43 40 39 38 34 31 29 26 23 21 20 20 21 21 21 20 19 18 17 16 16 15 15 15 16 15 16 16 20 32 39 37 37 36 36 39 40 41 40 41 46 46 43 42 42
55 49 45 45 46 50 53 53 53 55 63 65 58 55 57 61 68 73 78 77 70 64 63 63 59 49 38 31 29 28 29 30 27 28 33 35 34 37 44 48 52 52 47 45 44 42 40 36 32 30 28 25 23 21 20 20 21 21 20 19 18 17 16 15 15 17 19 18 15 15 16 18 28 36 36 38 39 38 40 40 41 40 40 43 45 44 45 45
57 53 48 47 47 50 53 55 56 57 61 67 65 59 58 64 72 76 80 85 79 72 77 76 66 55 45 38 32 29 34 30 22 30 37 38 38 39 44 49 50 51 49 47 46 42 40 39 35 32 30 26 25 23 19 19 22 22 20 18 18 17 17 16 15 18 20 20 17 16 17 21 29 35 35 38 40 39 40 41 41 40 39 41 42 43 45 46
61 56 52 50 49 51 54 57 60 59 60 66 69 67 66 68 75 80 84 90 87 80 82 79 68 60 51 45 36 29 36 31 19 29 36 36 42 42 44 51 51 51 50 48 47 42 39 40 38 35 32 28 27 25 20 19 21 21 19 18 18 18 17 17 16 18 20 21 20 18 18 20 27 34 36 39 40 39 40 40 40 40 39 40 42 42 44 46
69 64 58 54 53 53 55 59 61 61 62 63 67 71 73 74 80 85 89 92 87 82 86 83 72 62 53 48 42 31 34 34 25 29 33 36 43 42 43 51 53 52 50 48 46 40 38 41 40 36 34 31 28 24 21 19 20 20 18 18 19 19 18 18 17 19 21 21 20 21 21 20 27 35 38 40 40 39 40 39 39 40 39 41 43 42 44 46
77 73 67 62 60 57 55 59 59 59 63 66 66 68 72 76 81 88 93 91 82 81 89 86 75 71 65 56 49 38 35 39 38 37 36 39 43 41 43 50 53 54 50 48 47 41 38 39 39 37 34 32 29 24 21 20 19 18 18 20 20 20 20 19 19 19 21 23 21 21 21 22 31 38 39 42 42 38 39 39 40 41 41 41 42 43 44 46
80 80 77 73 70 65 61 59 56 57 66 71 67 66 72 77 80 90 94 83 76 82 89 86 80 82 79 65 53 43 41 45 48 45 41 42 44 40 41 47 53 54 50 49 48 43 38 37 38 38 33 31 29 25 22 20 19 18 19 20 20 22 21 20 23 22 22 27 24 20 21 22 29 38 39 39 37 34 37 40 40 41 42 43 41 42 44 45
82 84 85 84 82 78 72 64 57 60 73 76 69 67 75 81 84 93 89 73 76 87 89 86 85 86 85 75 60 46 46 52 52 51 48 47 48 44 43 48 52 54 53 51 49 44 39 37 35 34 32 31 29 26 23 20 19 19 19 20 22 25 23 21 24 24 26 29 24 20 23 22 25 32 36 33 30 32 35 38 40 39 41 43 43 43 45 47
83 86 89 90 89 87 83 75 68 72 78 76 72 71 76 85 90 90 81 74 80 88 88 88 86 86 88 84 70 50 48 54 54 54 53 51 53 48 45 47 48 51 53 50 47 44 41 38 34 33 32 30 29 29 27 23 21 20 20 21 24 27 26 24 27 30 32 28 23 23 24 24 23 25 30 32 31 32 33 34 36 39 41 43 45 47 48 50
83 85 89 93 92 90 89 84 82 84 83 79 78 76 78 88 91 83 79 81 83 83 89 92 89 88 89 87 77 57 49 54 56 57 57 55 57 52 46 46 45 48 51 48 47 46 44 41 36 34 33 29 28 28 28 25 23 21 21 21 24 28 28 29 32 34 33 27 23 26 26 25 24 19 23 30 30 30 32 33 35 38 42 45 49 52 52 53
82 84 89 93 93 93 91 88 88 90 89 85 83 81 83 88 86 79 83 87 85 86 90 92 91 91 88 85 79 61 50 55 57 57 58 57 60 59 52 47 44 47 52 51 47 46 46 45 38 34 32 29 27 26 25 24 22 21 21 21 23 27 28 31 34 31 29 28 25 26 27 27 23 20 25 29 29 31 33 34 36 39 43 49 53 54 53 53
83 85 89 92 93 95 93 91 91 92 93 90 88 87 87 86 82 82 89 91 91 92 90 90 93 92 85 81 77 62 50 54 57 56 58 57 58 59 53 47 46 48 51 51 47 44 44 42 36 32 32 29 27 26 24 24 23 21 22 21 21 24 25 28 33 33 30 28 27 27 28 29 25 25 32 33 31 34 36 36 39 42 45 48 51 52 51 51
85 86 90 93 95 97 95 93 93 94 95 94 95 95 89 83 82 84 90 94 96 95 91 91 94 92 86 80 77 64 51 54 59 57 58 56 53 54 51 50 50 50 51 51 48 45 44 42 36 32 32 29 27 27 23 23 25 23 22 22 21 21 22 23 30 37 34 28 30 30 27 28 26 26 34 37 35 37 38 38 40 42 43 43 47 50 50 52
86 87 92 93 93 95 94 92 92 94 97 97 98 97 89 85 84 84 89 96 97 95 93 95 96 93 88 83 77 64 52 55 58 56 58 56 53 53 52 53 52 49 51 49 47 47 46 45 39 32 31 30 27 26 24 23 24 23 21 21 21 21 24 27 32 39 39 33 34 32 27 28 28 28 36 39 39 40 39 39 40 40 41 42 46 50 52 56
86 89 94 91 87 89 89 88 88 90 94 97 96 95 91 89 86 84 88 94 95 93 94 97 97 93 89 87 79 63 53 56 58 57 57 55 55 53 51 53 51 48 50 48 48 49 46 43 39 33 31 30 27 27 26 24 22 22 22 21 22 24 27 29 32 38 40 36 34 32 31 32 29 33 42 42 39 40 40 40 40 40 42 45 48 51 55 60
85 92 96 92 85 84 84 84 83 87 92 94 94 93 90 88 86 83 84 90 92 91 93 97 97 94 93 90 81 64 54 54 56 58 57 53 54 53 49 52 51 48 49 49 50 51 48 46 41 34 32 31 28 27 26 25 22 23 23 21 21 25 27 27 31 36 37 39 41 36 32 33 31 36 44 43 42 43 41 40 39 40 44 46 47 51 56 60
86 94 96 92 87 83 82 83 83 86 89 89 90 92 88 86 85 83 84 88 90 90 94 95 93 96 97 88 77 66 58 57 56 57 57 53 52 52 49 50 51 49 50 49 51 50 48 48 43 34 33 34 30 27 24 24 23 23 24 23 21 23 25 27 30 31 31 39 46 41 36 35 34 39 44 43 43 44 41 40 39 41 44 44 45 49 55 58
87 95 95 92 90 84 82 86 87 87 88 87 89 92 91 87 83 82 86 87 87 90 96 94 89 93 93 84 74 66 62 63 59 56 57 53 50 51 50 49 50 50 50 50 51 50 47 50 49 39 34 33 28 25 24 22 23 22 23 25 24 23 26 30 32 31 30 35 40 40 40 38 34 38 42 42 44 44 41 41 41 41 43 43 43 46 52 55
85 92 94 95 95 90 86 87 88 90 91 90 90 91 92 90 83 82 84 84 88 94 96 93 87 87 88 84 74 66 64 66 61 57 58 53 50 51 49 48 49 50 50 50 50 50 49 51 51 41 32 31 29 26 25 23 23 23 22 24 25 25 27 31 36 35 30 30 33 33 36 37 35 38 41 42 45 44 41 43 43 43 43 42 42 45 49 52
83 90 94 97 99 97 93 88 87 91 94 93 92 91 91 91 87 83 80 81 90 96 96 94 87 81 81 78 69 62 61 62 60 57 57 53 49 48 47 48 49 49 51 53 53 51 50 50 48 40 33 32 30 28 27 26 25 24 24 24 24 25 27 33 41 40 30 29 31 27 29 35 38 41 42 42 45 44 42 43 44 45 46 43 41 43 47 49
81 87 92 97 99 100 98 93 88 90 95 95 94 94 92 91 91 88 84 84 89 94 95 93 85 78 77 77 75 73 69 65 61 56 54 52 48 44 45 48 50 50 51 54 54 50 50 52 48 42 39 37 35 34 32 29 27 27 27 26 24 25 26 29 36 35 31 33 32 28 31 33 34 39 41 40 43 45 43 41 42 46 48 45 41 41 44 46
78 84 88 93 98 100 100 98 91 88 92 95 95 95 94 94 94 91 89 88 86 88 89 86 81 77 78 82 84 82 76 70 65 60 56 55 50 44 45 47 48 49 50 53 55 52 55 58 53 47 45 43 41 38 33 29 26 27 28 25 24 24 23 25 30 30 31 35 32 31 34 32 33 38 38 38 43 45 44 41 41 44 46 43 41 42 43 45
74 82 85 89 96 99 100 100 95 88 89 93 94 94 94 95 95 91 90 88 83 80 80 78 77 77 80 86 83 78 76 72 67 64 60 59 56 49 44 46 48 48 50 54 57 57 58 60 57 52 44 39 38 34 29 28 27 27 28 25 24 24 23 26 29 29 32 35 33 35 37 34 35 37 35 37 41 42 43 42 41 43 43 42 42 44 47 50
72 80 83 87 94 98 99 100 99 94 92 94 96 96 95 96 96 90 84 81 78 75 74 73 76 78 82 86 82 77 79 75 67 64 62 62 63 56 47 47 49 50 54 58 58 58 59 59 58 53 43 37 37 34 30 30 29 28 28 26 25 27 27 27 29 32 34 33 34 40 40 35 36 39 37 37 38 38 40 41 42 44 43 43 45 48 52 56
72 78 83 88 94 97 98 99 99 99 98 97 97 96 94 94 94 88 82 80 77 72 72 74 76 78 79 80 78 77 79 75 68 66 66 66 67 61 53 50 50 52 57 61 62 61 62 62 59 52 44 40 38 34 31 30 29 29 29 28 27 28 28 26 31 39 35 29 35 43 41 37 38 41 40 38 37 37 39 42 45 47 48 48 50 52 57 61
72 77 83 89 94 96 98 99 100 100 100 99 98 94 90 88 89 87 86 89 84 75 74 74 73 73 76 77 77 78 77 74 71 71 72 72 68 62 57 55 55 57 60 63 65 64 65 65 62 55 48 45 41 36 32 29 29 28 28 30 29 30 30 29 35 42 35 30 40 45 43 43 42 41 42 39 37 40 44 49 52 52 53 54 53 55 59 61
69 74 80 88 92 93 95 97 99 100 99 100 98 92 85 83 83 82 83 85 86 84 81 78 73 74 77 80 80 79 75 72 74 75 76 76 70 64 62 61 61 61 63 66 66 65 65 66 65 60 52 47 44 40 34 31 30 28 29 32 32 31 30 30 34 38 32 32 42 43 42 45 46 46 48 43 40 45 51 56 56 55 55 56 55 56 58 59
70 73 77 85 89 90 92 94 96 99 99 100 97 88 80 78 77 80 82 81 82 84 80 76 77 79 81 83 81 78 74 72 74 75 74 74 71 66 65 66 64 63 66 68 66 63 64 63 61 59 53 48 48 45 38 34 32 29 29 31 32 31 30 28 32 35 32 33 41 42 41 46 49 51 52 49 48 51 54 56 57 56 56 57 57 56 55 56
71 75 77 82 86 88 91 93 95 98 98 99 97 87 79 77 75 79 85 79 73 74 73 73 79 82 84 86 81 75 71 68 68 69 69 70 68 64 64 67 68 67 68 69 64 63 64 59 52 52 52 50 50 47 39 35 34 33 33 34 32 31 30 28 28 32 33 36 39 38 38 45 52 54 53 53 53 53 52 53 53 55 56 56 57 57 55 56